CW7959 Stornoway UK current weather conditions

sailwx.info

Wind from 302 at 1 knots gusting 2

Air temperature 17.8° C
Dewpoint 15.2° C

Last reported at 2019-Aug-23 21:09 UTC.
Time now 2019-Aug-23 21:59 UTC

Location: N 56°43' W 005°13'.
View on Google Maps.

See reports from other nearby stations

  
Tides and Currents Weather Stations Pressure Air Temp Water Temp Dewpoint Dewpoint Depression Visibility Wind Speed Wind Dir Waves Ship Positions
date/time (UTC)wind fromknots sea level pressurealtimeterstation pressurevisibilityair tempwater tempwave heightnotes
2019-Aug-23 21:09 302 1 gusting 2 17.8
2019-Aug-23 21:04 302 0 gusting 6 17.8
2019-Aug-23 20:59 310 2 gusting 7 17.8
2019-Aug-23 20:54 254 1 gusting 4 17.8
2019-Aug-23 20:49 240 1 gusting 7 17.2
2019-Aug-23 20:44 265 2 gusting 8 17.2
2019-Aug-23 20:39 276 4 gusting 10 17.2
2019-Aug-23 20:34 252 1 gusting 8 17.2
2019-Aug-23 20:29 238 1 gusting 4 17.2
2019-Aug-23 20:24 238 17.2
2019-Aug-23 20:19 238 0 gusting 2 17.2
2019-Aug-23 20:14 238 1 gusting 10 17.2
2019-Aug-23 20:09 200 1 gusting 6 17.2
2019-Aug-23 20:04 195 0 gusting 2 16.7
2019-Aug-23 19:59 195 1 gusting 2 16.7
2019-Aug-23 19:54 195 1 gusting 2 16.7
2019-Aug-23 19:49 195 17.2
2019-Aug-23 19:44 195 17.2
2019-Aug-23 19:39 195 17.2
2019-Aug-23 19:34 195 17.2
2019-Aug-23 19:29 195 17.2
2019-Aug-23 19:24 195 17.8
2019-Aug-23 19:19 195 17.8
2019-Aug-23 19:14 195 17.8
2019-Aug-23 19:09 195 17.8
2019-Aug-23 19:04 195 17.8
2019-Aug-23 18:59 195 17.8
2019-Aug-23 18:54 195 18.3
2019-Aug-23 18:49 195 18.3
2019-Aug-23 18:44 195 18.3
2019-Aug-23 18:39 195 18.3
2019-Aug-23 18:34 195 18.9
2019-Aug-23 18:29 195 18.9
2019-Aug-23 18:24 195 18.9
2019-Aug-23 18:19 195 18.9
2019-Aug-23 18:14 195 0 gusting 2 18.9
2019-Aug-23 18:09 195 18.9
2019-Aug-23 18:04 195 0 gusting 4 18.9
2019-Aug-23 17:59 195 0 gusting 2 18.9
2019-Aug-23 17:54 195 18.9
2019-Aug-23 17:49 195 0 gusting 2 18.9
2019-Aug-23 17:44 195 0 gusting 2 18.9
2019-Aug-23 17:39 195 18.9
2019-Aug-23 17:34 195 0 gusting 5 18.9
2019-Aug-23 17:29 195 1 gusting 2 18.9
2019-Aug-23 17:24 195 18.9
2019-Aug-23 17:19 195 18.9
2019-Aug-23 17:14 195 18.9
2019-Aug-23 17:09 195 18.9
2019-Aug-23 17:04 195 18.9
2019-Aug-23 16:59 195 0 gusting 2 18.9
2019-Aug-23 16:54 195 0 gusting 4 18.9
2019-Aug-23 16:49 195 0 gusting 2 19.4
2019-Aug-23 16:44 195 1 gusting 5 19.4
2019-Aug-23 16:39 196 0 gusting 4 19.4
2019-Aug-23 16:34 196 0 gusting 2 19.4
2019-Aug-23 16:29 196 19.4
2019-Aug-23 16:24 196 0 gusting 2 19.4
2019-Aug-23 16:19 196 18.9
2019-Aug-23 16:14 196 18.9
2019-Aug-23 16:09 196 0 gusting 2 18.9
2019-Aug-23 16:04 196 0 gusting 4 18.9
2019-Aug-23 15:59 196 0 gusting 5 18.9
2019-Aug-23 15:54 196 0 gusting 4 18.9
2019-Aug-23 15:49 196 1 gusting 5 18.9
2019-Aug-23 15:44 196 0 gusting 5 18.9
2019-Aug-23 15:39 196 0 gusting 2 18.9
2019-Aug-23 15:34 196 1 gusting 5 18.9
2019-Aug-23 15:29 196 0 gusting 4 18.9
2019-Aug-23 15:24 196 0 gusting 4 18.9
2019-Aug-23 15:19 196 0 gusting 5 18.9
2019-Aug-23 15:14 196 1 gusting 5 18.9
2019-Aug-23 15:09 197 0 gusting 5 19.4
2019-Aug-23 15:04 197 1 gusting 4 19.4
2019-Aug-23 14:59 197 1 gusting 4 19.4
2019-Aug-23 14:54 196 1 gusting 6 19.4
2019-Aug-23 14:49 198 0 gusting 6 19.4
2019-Aug-23 14:44 196 2 gusting 6 19.4
2019-Aug-23 14:39 197 1 gusting 6 18.9
2019-Aug-23 14:34 200 2 gusting 6 18.9
2019-Aug-23 14:29 197 1 gusting 6 18.9
2019-Aug-23 14:24 200 2 gusting 6 18.9
2019-Aug-23 14:19 207 2 gusting 7 18.9
2019-Aug-23 14:14 213 2 gusting 6 18.9
2019-Aug-23 14:09 205 2 gusting 6 18.9
2019-Aug-23 14:04 198 2 gusting 7 20.0
2019-Aug-23 13:59 238 0 gusting 4 20.0
2019-Aug-23 13:54 244 0 gusting 4 20.0
2019-Aug-23 13:49 251 1 gusting 6 20.0
2019-Aug-23 13:44 201 1 gusting 4 20.0
2019-Aug-23 13:39 198 2 gusting 7 20.0
2019-Aug-23 13:34 235 1 gusting 8 19.4
2019-Aug-23 13:29 187 1 gusting 8 19.4
2019-Aug-23 13:24 195 1 gusting 11 19.4
2019-Aug-23 13:19 193 4 gusting 10 19.4
2019-Aug-23 13:14 183 4 gusting 8 19.4
2019-Aug-23 13:09 197 3 gusting 12 19.4
2019-Aug-23 13:04 196 5 gusting 11 19.4
2019-Aug-23 12:59 195 2 gusting 13 20.0
2019-Aug-23 12:54 191 4 gusting 8 20.0
2019-Aug-23 12:49 183 4 gusting 11 19.4
2019-Aug-23 12:44 203 4 gusting 12 20.0
2019-Aug-23 12:39 182 4 gusting 11 20.0
2019-Aug-23 12:34 208 3 gusting 8 20.0
2019-Aug-23 12:29 194 2 gusting 13 19.4
2019-Aug-23 12:24 187 3 gusting 10 19.4
2019-Aug-23 12:19 198 5 gusting 8 18.9
2019-Aug-23 12:14 193 4 gusting 13 18.9
2019-Aug-23 12:09 216 1 gusting 7 18.9
2019-Aug-23 12:04 207 2 gusting 11 18.9
2019-Aug-23 11:59 190 2 gusting 11 18.9
2019-Aug-23 11:54 213 3 gusting 10 18.9
2019-Aug-23 11:49 202 5 gusting 12 18.3
2019-Aug-23 11:44 197 3 gusting 10 18.3
2019-Aug-23 11:39 189 2 gusting 8 18.3
2019-Aug-23 11:34 193 2 gusting 10 18.3
2019-Aug-23 11:29 199 2 gusting 10 18.3
2019-Aug-23 11:24 197 4 gusting 13 18.3
2019-Aug-23 11:19 189 6 gusting 11 18.3
2019-Aug-23 11:14 210 3 gusting 12 17.8
2019-Aug-23 11:09 195 4 gusting 13 17.2
2019-Aug-23 11:04 207 3 gusting 10 17.2
2019-Aug-23 10:59 207 4 gusting 14 17.2
2019-Aug-23 10:54 208 4 gusting 13 17.2
2019-Aug-23 10:49 200 4 gusting 11 17.2
2019-Aug-23 10:44 190 5 gusting 11 17.2
2019-Aug-23 10:39 206 4 gusting 10 17.2
2019-Aug-23 10:34 191 5 gusting 10 17.2
2019-Aug-23 10:29 191 3 gusting 13 17.8
2019-Aug-23 10:24 222 1 gusting 6 17.8
2019-Aug-23 10:19 216 3 gusting 10 17.8
2019-Aug-23 10:14 200 2 gusting 10 17.2
2019-Aug-23 10:09 197 2 gusting 6 16.7
2019-Aug-23 10:04 209 3 gusting 6 16.7
2019-Aug-23 09:59 207 1 gusting 10 16.7
2019-Aug-23 09:54 202 1 gusting 7 16.7
2019-Aug-23 09:49 202 1 gusting 6 16.7
2019-Aug-23 09:44 185 1 gusting 8 16.7
2019-Aug-23 09:39 205 3 gusting 10 16.7
2019-Aug-23 09:34 206 1 gusting 7 16.7
2019-Aug-23 09:29 202 3 gusting 12 16.1
2019-Aug-23 09:24 219 1 gusting 6 16.1
2019-Aug-23 09:19 202 1 gusting 10 16.1
2019-Aug-23 09:14 205 4 gusting 10 16.1
2019-Aug-23 09:09 218 2 gusting 8 16.1
2019-Aug-23 09:04 225 3 gusting 13 16.1
2019-Aug-23 08:59 197 2 gusting 7 16.1
2019-Aug-23 08:54 203 4 gusting 13 16.1
2019-Aug-23 08:49 214 3 gusting 10 16.1
2019-Aug-23 08:44 197 4 gusting 12 15.6
2019-Aug-23 08:39 187 2 gusting 8 15.6
2019-Aug-23 08:34 186 3 gusting 11 15.6
2019-Aug-23 08:29 207 2 gusting 10 15.6
2019-Aug-23 08:24 201 3 gusting 8 15.6
2019-Aug-23 08:19 200 1 gusting 6 15.0
2019-Aug-23 08:14 200 1 gusting 6 15.0
2019-Aug-23 08:09 205 1 gusting 14 15.0
2019-Aug-23 08:04 204 1 gusting 13 15.0
2019-Aug-23 07:59 196 1 gusting 6 15.0
2019-Aug-23 07:54 203 1 gusting 5 15.0
2019-Aug-23 07:49 245 0 gusting 5 15.0
2019-Aug-23 07:44 232 1 gusting 4 15.0
2019-Aug-23 07:39 235 0 gusting 2 15.0
2019-Aug-23 07:34 241 1 gusting 8 15.0
2019-Aug-23 07:29 220 1 gusting 6 15.0
2019-Aug-23 07:24 214 0 gusting 5 15.0
2019-Aug-23 07:19 214 1 gusting 5 15.0
2019-Aug-23 07:14 201 1 gusting 4 15.0
2019-Aug-23 07:09 203 2 gusting 6 15.0
2019-Aug-23 07:04 199 0 gusting 5 15.0
2019-Aug-23 06:59 196 0 gusting 7 15.0
2019-Aug-23 06:54 203 1 gusting 6 15.0
2019-Aug-23 06:49 243 1 gusting 5 15.0
2019-Aug-23 06:44 190 3 gusting 10 15.0
2019-Aug-23 06:39 200 2 gusting 8 15.0
2019-Aug-23 06:34 196 1 gusting 6 15.0
2019-Aug-23 06:29 197 2 gusting 7 15.0
2019-Aug-23 06:24 220 4 gusting 11 15.6
2019-Aug-23 06:19 202 2 gusting 10 15.6
2019-Aug-23 06:14 200 1 gusting 7 15.6
2019-Aug-23 06:09 205 3 gusting 12 15.6
2019-Aug-23 06:04 194 3 gusting 10 15.0
2019-Aug-23 05:59 201 1 gusting 13 15.0
2019-Aug-23 05:54 198 1 gusting 6 15.0
2019-Aug-23 05:49 213 1 gusting 7 15.0
2019-Aug-23 05:44 212 1 gusting 6 15.0
2019-Aug-23 05:39 250 0 gusting 5 15.0
2019-Aug-23 05:34 250 3 gusting 8 15.0
2019-Aug-23 05:29 192 1 gusting 13 15.0
2019-Aug-23 05:24 193 1 gusting 7 15.0
2019-Aug-23 05:19 199 2 gusting 6 15.0
2019-Aug-23 05:14 200 1 gusting 6 15.6
2019-Aug-23 05:09 195 2 gusting 6 15.6
2019-Aug-23 05:04 211 2 gusting 7 15.6
2019-Aug-23 04:59 192 2 gusting 6 15.6
2019-Aug-23 04:54 194 2 gusting 8 15.0
2019-Aug-23 04:49 202 3 gusting 10 15.0
2019-Aug-23 04:44 199 1 gusting 10 15.0
2019-Aug-23 04:39 223 1 gusting 6 15.0
2019-Aug-23 04:34 199 1 gusting 6 15.0
2019-Aug-23 04:29 208 2 gusting 6 15.0
2019-Aug-23 04:24 218 2 gusting 7 15.0
2019-Aug-23 04:19 204 2 gusting 8 15.0
2019-Aug-23 04:14 209 4 gusting 10 15.0
2019-Aug-23 04:09 196 1 gusting 6 15.0
2019-Aug-23 04:04 202 0 gusting 5 15.0
2019-Aug-23 03:59 196 1 gusting 6 15.0
2019-Aug-23 03:54 216 2 gusting 10 15.0
2019-Aug-23 03:49 234 2 gusting 13 15.0
2019-Aug-23 03:44 192 2 gusting 10 15.0
2019-Aug-23 03:39 181 2 gusting 11 15.0
2019-Aug-23 03:34 205 1 gusting 13 15.0
2019-Aug-23 03:29 191 2 gusting 10 15.0
2019-Aug-23 03:24 197 2 gusting 7 15.0
2019-Aug-23 03:19 212 2 gusting 13 15.0
2019-Aug-23 03:14 194 1 gusting 8 15.0
2019-Aug-23 03:09 194 2 gusting 10 15.0
2019-Aug-23 03:04 182 1 gusting 6 15.0
2019-Aug-23 02:59 217 1 gusting 6 15.0
2019-Aug-23 02:54 214 1 gusting 4 15.0
2019-Aug-23 02:49 188 2 gusting 8 15.0
2019-Aug-23 02:44 197 2 gusting 10 15.0
2019-Aug-23 02:39 200 2 gusting 8 15.0
2019-Aug-23 02:34 214 0 gusting 6 15.0
2019-Aug-23 02:29 202 15.0
2019-Aug-23 02:24 202 0 gusting 6 15.0
2019-Aug-23 02:19 198 0 gusting 7 15.0
2019-Aug-23 02:14 201 1 gusting 6 15.0
2019-Aug-23 02:09 203 0 gusting 7 15.0
2019-Aug-23 02:04 204 1 gusting 6 15.0
2019-Aug-23 01:59 175 0 gusting 10 15.0
2019-Aug-23 01:54 213 1 gusting 10 15.0
2019-Aug-23 01:49 198 0 gusting 10 15.6
2019-Aug-23 01:44 199 2 gusting 10 15.6
2019-Aug-23 01:39 198 2 gusting 6 15.6
2019-Aug-23 01:34 194 1 gusting 6 15.6
2019-Aug-23 01:29 205 1 gusting 6 15.6
2019-Aug-23 01:24 223 1 gusting 6 15.6
2019-Aug-23 01:19 188 0 gusting 6 15.6
2019-Aug-23 01:14 185 2 gusting 7 15.6
2019-Aug-23 01:09 197 0 gusting 5 15.6
2019-Aug-23 01:04 191 2 gusting 7 15.6
2019-Aug-23 00:59 190 0 gusting 4 15.6
2019-Aug-23 00:54 188 0 gusting 6 15.6
2019-Aug-23 00:49 204 15.6
2019-Aug-23 00:44 194 1 gusting 5 15.6
2019-Aug-23 00:39 199 2 gusting 7 15.6
2019-Aug-23 00:34 204 0 gusting 6 15.6
2019-Aug-23 00:29 194 1 gusting 6 15.6
2019-Aug-23 00:24 211 0 gusting 5 15.6
2019-Aug-23 00:19 206 15.6
2019-Aug-23 00:14 206 0 gusting 6 15.6
2019-Aug-23 00:09 199 0 gusting 7 15.6
2019-Aug-23 00:04 192 0 gusting 7 15.6
2019-Aug-22 23:59 202 1 gusting 6 15.6
2019-Aug-22 23:54 196 2 gusting 6 15.6
2019-Aug-22 23:49 222 1 gusting 6 15.6
2019-Aug-22 23:44 207 0 gusting 6 15.6
2019-Aug-22 23:39 207 1 gusting 6 15.6
2019-Aug-22 23:34 190 0 gusting 5 15.6
2019-Aug-22 23:29 195 1 gusting 8 15.6
2019-Aug-22 23:24 219 0 gusting 8 15.6
2019-Aug-22 23:19 198 1 gusting 6 15.6
2019-Aug-22 23:14 195 3 gusting 10 15.6
2019-Aug-22 23:09 211 0 gusting 5 15.6
2019-Aug-22 23:04 208 1 gusting 5 15.6
2019-Aug-22 22:59 206 1 gusting 10 15.6
2019-Aug-22 22:54 215 0 gusting 5 15.6
2019-Aug-22 22:49 212 2 gusting 10 15.6
2019-Aug-22 22:44 196 2 gusting 6 15.6
2019-Aug-22 22:39 202 1 gusting 6 15.6
2019-Aug-22 22:34 196 0 gusting 6 15.6
2019-Aug-22 22:29 196 1 gusting 6 15.6
2019-Aug-22 22:24 209 1 gusting 6 15.6
2019-Aug-22 22:19 221 0 gusting 6 15.6
2019-Aug-22 22:14 210 0 gusting 6 15.6
2019-Aug-22 22:09 200 0 gusting 6 15.0
2019-Aug-22 22:04 236 0 gusting 8 15.0
2019-Aug-22 21:59 207 1 gusting 6 15.0
2019-Aug-22 21:54 231 15.0
2019-Aug-22 21:49 233 1 gusting 6 14.4
2019-Aug-22 21:44 207 1 gusting 5 14.4
2019-Aug-22 21:39 206 13.9
2019-Aug-22 21:34 206 13.9
2019-Aug-22 21:29 206 13.9
2019-Aug-22 21:24 206 13.3
2019-Aug-22 21:19 206 13.3
2019-Aug-22 21:14 206 13.3
2019-Aug-22 21:09 206 13.3
2019-Aug-22 21:04 206 13.3
2019-Aug-22 20:59 206 13.3
2019-Aug-22 20:54 206 13.3
2019-Aug-22 20:49 206 13.9
2019-Aug-22 20:44 206 13.9
2019-Aug-22 20:39 206 13.9
2019-Aug-22 20:34 206 13.9
2019-Aug-22 20:29 206 13.9
2019-Aug-22 20:24 206 13.9
2019-Aug-22 20:19 206 13.9
2019-Aug-22 20:14 206 0 gusting 2 14.4
2019-Aug-22 20:09 206 14.4
2019-Aug-22 20:04 206 1 gusting 6 14.4
2019-Aug-22 19:59 209 1 gusting 6 14.4
2019-Aug-22 19:54 210 0 gusting 4 15.0
2019-Aug-22 19:49 199 1 gusting 5 15.0
2019-Aug-22 19:44 195 0 gusting 6 15.0
2019-Aug-22 19:39 196 0 gusting 6 15.0
2019-Aug-22 19:34 220 1 gusting 6 15.0
2019-Aug-22 19:29 199 0 gusting 2 15.0
2019-Aug-22 19:24 199 0 gusting 4 15.0
2019-Aug-22 19:19 200 0 gusting 2 15.0
2019-Aug-22 19:14 199 15.0
2019-Aug-22 19:09 199 15.0
2019-Aug-22 19:04 199 15.0
2019-Aug-22 18:59 199 15.0
2019-Aug-22 18:54 200 15.0
2019-Aug-22 18:49 200 15.0
2019-Aug-22 18:44 200 0 gusting 5 15.0
2019-Aug-22 18:39 200 1 gusting 6 15.0
2019-Aug-22 18:34 200 0 gusting 6 15.0
2019-Aug-22 18:29 202 0 gusting 6 15.0
2019-Aug-22 18:24 213 2 gusting 8 15.6
2019-Aug-22 18:19 199 1 gusting 6 15.6
2019-Aug-22 18:14 199 1 gusting 5 16.1
2019-Aug-22 18:09 198 0 gusting 7 16.1
2019-Aug-22 18:04 215 1 gusting 5 16.1
2019-Aug-22 17:59 206 1 gusting 10 16.1
2019-Aug-22 17:54 198 2 gusting 6 16.1
2019-Aug-22 17:49 197 16.1
2019-Aug-22 17:44 197 1 gusting 6 16.1
2019-Aug-22 17:39 200 3 gusting 6 16.1
2019-Aug-22 17:34 194 1 gusting 7 16.1
2019-Aug-22 17:29 197 0 gusting 5 16.1
2019-Aug-22 17:24 195 0 gusting 6 16.1
2019-Aug-22 17:19 193 0 gusting 2 16.1
2019-Aug-22 17:14 193 0 gusting 4 16.1
2019-Aug-22 17:09 193 1 gusting 6 16.1
2019-Aug-22 17:04 194 0 gusting 5 16.1
2019-Aug-22 16:59 195 2 gusting 6 16.1
2019-Aug-22 16:54 200 1 gusting 6 16.1
2019-Aug-22 16:49 205 1 gusting 8 16.1
2019-Aug-22 16:44 190 2 gusting 7 16.1
2019-Aug-22 16:39 216 1 gusting 6 16.1
2019-Aug-22 16:34 201 2 gusting 7 16.1
2019-Aug-22 16:29 202 1 gusting 6 16.1
2019-Aug-22 16:24 202 2 gusting 6 16.1
2019-Aug-22 16:19 195 3 gusting 13 16.1
2019-Aug-22 16:14 198 3 gusting 10 16.1
2019-Aug-22 16:09 208 2 gusting 6 16.1
2019-Aug-22 16:04 194 1 gusting 5 16.1
2019-Aug-22 15:59 200 1 gusting 10 16.7
2019-Aug-22 15:54 189 1 gusting 8 16.7
2019-Aug-22 15:49 193 1 gusting 6 16.7
2019-Aug-22 15:44 187 2 gusting 12 16.7
2019-Aug-22 15:39 186 0 gusting 5 16.7
2019-Aug-22 15:34 198 1 gusting 6 16.7
2019-Aug-22 15:29 191 1 gusting 7 16.7
2019-Aug-22 15:24 198 1 gusting 10 16.7
2019-Aug-22 15:19 201 4 gusting 10 16.7
2019-Aug-22 15:14 189 4 gusting 12 16.7
2019-Aug-22 15:09 207 2 gusting 10 16.7
2019-Aug-22 15:04 200 1 gusting 6 16.7
2019-Aug-22 14:59 199 1 gusting 10 16.7
2019-Aug-22 14:54 196 3 gusting 10 16.1
2019-Aug-22 14:49 194 3 gusting 10 15.6
2019-Aug-22 14:44 191 2 gusting 8 15.6
2019-Aug-22 14:39 192 2 gusting 7 15.6
2019-Aug-22 14:34 205 5 gusting 10 15.6
2019-Aug-22 14:29 208 4 gusting 11 15.6
2019-Aug-22 14:24 204 4 gusting 12 15.6
2019-Aug-22 14:19 219 15.6
2019-Aug-22 14:14 215 0 gusting 10 15.6
2019-Aug-22 14:09 195 2 gusting 12 16.1
2019-Aug-22 14:04 229 2 gusting 10 16.1
2019-Aug-22 13:59 204 3 gusting 12 16.1
2019-Aug-22 13:54 201 5 gusting 19 16.7
2019-Aug-22 13:49 192 3 gusting 17 16.7
2019-Aug-22 13:44 202 5 gusting 17 16.1
2019-Aug-22 13:39 194 5 gusting 17 16.1
2019-Aug-22 13:34 202 4 gusting 10 15.6
2019-Aug-22 13:29 216 2 gusting 10 15.6
2019-Aug-22 13:24 208 2 gusting 13 15.6
2019-Aug-22 13:19 192 5 gusting 13 15.6
2019-Aug-22 13:14 189 2 gusting 13 15.0
2019-Aug-22 13:09 240 1 gusting 6 15.0
2019-Aug-22 13:04 234 1 gusting 7 15.0
2019-Aug-22 12:59 210 0 gusting 4 15.0
2019-Aug-22 12:54 209 1 gusting 7 15.0
2019-Aug-22 12:49 217 0 gusting 7 14.4
2019-Aug-22 12:44 231 0 gusting 6 15.0
2019-Aug-22 12:39 189 2 gusting 7 15.0
2019-Aug-22 12:34 213 2 gusting 8 15.0
2019-Aug-22 12:29 191 1 gusting 6 15.6
2019-Aug-22 12:24 222 2 gusting 10 15.6
2019-Aug-22 12:19 211 2 gusting 13 15.6
2019-Aug-22 12:14 202 1 gusting 10 15.6
2019-Aug-22 12:09 249 0 gusting 7 15.0
2019-Aug-22 12:04 212 0 gusting 5 15.0
2019-Aug-22 11:59 199 1 gusting 8 14.4
2019-Aug-22 11:54 200 1 gusting 7 14.4
2019-Aug-22 11:49 199 1 gusting 8 14.4
2019-Aug-22 11:44 199 4 gusting 8 15.0
2019-Aug-22 11:39 199 2 gusting 11 15.0
2019-Aug-22 11:34 212 0 gusting 11 15.0
2019-Aug-22 11:29 209 2 gusting 10 15.0
2019-Aug-22 11:24 213 2 gusting 10 15.0
2019-Aug-22 11:19 197 2 gusting 10 15.0
2019-Aug-22 11:14 233 2 gusting 17 15.6
2019-Aug-22 11:09 204 0 gusting 6 15.6
2019-Aug-22 11:04 195 1 gusting 10 15.6
2019-Aug-22 10:59 200 4 gusting 11 15.6
2019-Aug-22 10:54 216 5 gusting 12 16.1
2019-Aug-22 10:49 208 4 gusting 15 16.1
2019-Aug-22 10:44 202 5 gusting 18 16.1
2019-Aug-22 10:39 204 6 gusting 15 16.1
2019-Aug-22 10:34 210 1 gusting 13 16.7
2019-Aug-22 10:29 190 6 gusting 14 16.7
2019-Aug-22 10:24 202 4 gusting 10 16.7
2019-Aug-22 10:19 208 5 gusting 13 16.7
2019-Aug-22 10:14 205 2 gusting 10 16.7
2019-Aug-22 10:09 229 5 gusting 13 17.2
2019-Aug-22 10:04 214 4 gusting 10 17.2
2019-Aug-22 09:59 200 3 gusting 10 17.2
2019-Aug-22 09:54 204 6 gusting 13 16.7
2019-Aug-22 09:49 221 2 gusting 10 16.7
2019-Aug-22 09:44 202 4 gusting 11 16.1
2019-Aug-22 09:39 213 4 gusting 13 16.1
2019-Aug-22 09:34 214 2 gusting 8 16.1
2019-Aug-22 09:29 210 4 gusting 14 16.1
2019-Aug-22 09:24 224 4 gusting 11 16.1
2019-Aug-22 09:19 200 4 gusting 12 16.1
2019-Aug-22 09:14 197 4 gusting 13 15.6
2019-Aug-22 09:09 214 4 gusting 12 15.6
2019-Aug-22 09:04 202 3 gusting 10 15.0
2019-Aug-22 08:59 198 6 gusting 17 15.0
2019-Aug-22 08:54 197 3 gusting 14 14.4
2019-Aug-22 08:49 217 5 gusting 13 14.4
2019-Aug-22 08:44 195 6 gusting 14 14.4
2019-Aug-22 08:39 198 3 gusting 12 14.4
2019-Aug-22 08:34 198 3 gusting 11 14.4
2019-Aug-22 08:29 203 2 gusting 12 14.4
2019-Aug-22 08:24 187 3 gusting 11 14.4
2019-Aug-22 08:19 187 4 gusting 18 14.4
2019-Aug-22 08:14 199 6 gusting 19 14.4
2019-Aug-22 08:09 201 6 gusting 13 13.9
2019-Aug-22 08:04 192 4 gusting 13 13.9
2019-Aug-22 07:59 194 4 gusting 8 13.9
2019-Aug-22 07:54 208 2 gusting 11 13.9
2019-Aug-22 07:49 199 4 gusting 13 13.9
2019-Aug-22 07:44 188 1 gusting 7 13.9
2019-Aug-22 07:39 197 1 gusting 10 13.9
2019-Aug-22 07:34 206 2 gusting 8 13.9
2019-Aug-22 07:29 198 0 gusting 6 13.3
2019-Aug-22 07:24 181 0 gusting 8 13.3
2019-Aug-22 07:19 206 0 gusting 6 13.3
2019-Aug-22 07:14 199 2 gusting 8 13.3
2019-Aug-22 07:09 231 0 gusting 8 13.3
2019-Aug-22 07:04 178 2 gusting 10 13.3
2019-Aug-22 06:59 203 2 gusting 10 12.8
2019-Aug-22 06:54 206 1 gusting 14 12.8
2019-Aug-22 06:49 194 4 gusting 14 12.8
2019-Aug-22 06:44 203 1 gusting 10 12.8
2019-Aug-22 06:39 207 0 gusting 7 12.8
2019-Aug-22 06:34 192 5 gusting 17 12.8
2019-Aug-22 06:29 191 4 gusting 8 13.3
2019-Aug-22 06:24 201 5 gusting 13 13.3
2019-Aug-22 06:19 188 4 gusting 14 13.3
2019-Aug-22 06:14 177 3 gusting 14 13.3
2019-Aug-22 06:09 190 1 gusting 11 13.3
2019-Aug-22 06:04 174 5 gusting 13 13.3
2019-Aug-22 05:59 194 0 gusting 7 13.3
2019-Aug-22 05:54 199 1 gusting 11 13.3
2019-Aug-22 05:49 198 1 gusting 11 13.3
2019-Aug-22 05:44 195 4 gusting 13 12.8
2019-Aug-22 05:39 190 1 gusting 10 12.8
2019-Aug-22 05:34 191 3 gusting 13 12.8
2019-Aug-22 05:29 197 3 gusting 12 12.8
2019-Aug-22 05:24 203 3 gusting 11 12.8
2019-Aug-22 05:19 189 2 gusting 10 12.8
2019-Aug-22 05:14 183 0 gusting 7 12.8
2019-Aug-22 05:09 185 1 gusting 6 12.8
2019-Aug-22 05:04 196 2 gusting 6 12.8
2019-Aug-22 04:59 201 1 gusting 6 12.8
2019-Aug-22 04:54 201 1 gusting 5 12.8
2019-Aug-22 04:49 199 2 gusting 12 12.8
2019-Aug-22 04:44 192 2 gusting 6 12.8
2019-Aug-22 04:39 187 2 gusting 11 12.8
2019-Aug-22 04:34 185 3 gusting 13 12.8
2019-Aug-22 04:29 208 0 gusting 6 12.2
2019-Aug-22 04:24 203 1 gusting 4 12.2
2019-Aug-22 04:19 202 0 gusting 2 12.2
2019-Aug-22 04:14 202 1 gusting 4 12.2
2019-Aug-22 04:09 202 0 gusting 5 12.2
2019-Aug-22 04:04 201 12.2
2019-Aug-22 03:59 201 12.2
2019-Aug-22 03:54 201 12.2
2019-Aug-22 03:49 200 1 gusting 6 12.2
2019-Aug-22 03:44 196 12.2
2019-Aug-22 03:39 196 12.2
2019-Aug-22 03:34 196 11.7
2019-Aug-22 03:29 196 11.7
2019-Aug-22 03:24 196 12.2
2019-Aug-22 03:19 196 12.2
2019-Aug-22 03:14 196 12.2
2019-Aug-22 03:09 196 12.2
2019-Aug-22 03:04 196 0 gusting 4 12.2
2019-Aug-22 02:59 191 0 gusting 5 12.2
2019-Aug-22 02:54 189 0 gusting 7 12.8
2019-Aug-22 02:49 187 1 gusting 6 12.8
2019-Aug-22 02:44 204 12.8
2019-Aug-22 02:39 205 12.8
2019-Aug-22 02:34 207 4 gusting 11 12.8
2019-Aug-22 02:29 205 1 gusting 8 12.8
2019-Aug-22 02:24 195 5 gusting 14 12.8
2019-Aug-22 02:19 193 4 gusting 11 12.8
2019-Aug-22 02:14 203 0 gusting 4 12.8
2019-Aug-22 02:09 203 0 gusting 10 12.8
2019-Aug-22 02:04 198 0 gusting 6 12.8
2019-Aug-22 01:59 191 0 gusting 7 12.8
2019-Aug-22 01:54 165 0 gusting 11 12.8
2019-Aug-22 01:49 166 1 gusting 10 12.8
2019-Aug-22 01:44 210 2 gusting 10 12.8
2019-Aug-22 01:39 194 0 gusting 4 12.8
2019-Aug-22 01:34 197 2 gusting 7 12.8
2019-Aug-22 01:29 199 0 gusting 11 12.2
2019-Aug-22 01:24 201 1 gusting 7 12.2
2019-Aug-22 01:19 200 0 gusting 5 12.2
2019-Aug-22 01:14 198 0 gusting 4 12.2
2019-Aug-22 01:09 198 12.2
2019-Aug-22 01:04 198 12.2
2019-Aug-22 00:59 198 12.2
2019-Aug-22 00:54 198 12.2
2019-Aug-22 00:49 198 0 gusting 4 12.8
2019-Aug-22 00:44 198 1 gusting 6 12.8
2019-Aug-22 00:39 195 1 gusting 6 12.8
2019-Aug-22 00:34 194 12.8
2019-Aug-22 00:29 196 0 gusting 6 12.8
2019-Aug-22 00:24 197 1 gusting 6 12.8
2019-Aug-22 00:19 200 1 gusting 6 12.8
2019-Aug-22 00:14 194 0 gusting 5 12.8
2019-Aug-22 00:09 194 12.8
2019-Aug-22 00:04 196 0 gusting 6 12.8
2019-Aug-21 23:59 195 0 gusting 6 12.8
2019-Aug-21 23:54 203 1 gusting 6 12.8
2019-Aug-21 23:49 193 13.3
2019-Aug-21 23:44 193 1 gusting 6 13.3
2019-Aug-21 23:39 187 1 gusting 10 13.3
2019-Aug-21 23:34 193 3 gusting 8 12.8
2019-Aug-21 23:29 194 12.8
2019-Aug-21 23:24 199 12.8
2019-Aug-21 23:19 197 12.8
2019-Aug-21 23:14 197 12.8
2019-Aug-21 23:09 193 0 gusting 6 12.8
2019-Aug-21 23:04 193 12.2
2019-Aug-21 22:59 192 12.2
2019-Aug-21 22:54 193 12.2
2019-Aug-21 22:49 192 12.2
2019-Aug-21 22:44 192 12.2
2019-Aug-21 22:39 192 12.2
2019-Aug-21 22:34 192 12.2
2019-Aug-21 22:29 192 12.2
2019-Aug-21 22:24 192 12.2
2019-Aug-21 22:19 192 12.2
2019-Aug-21 22:14 192 12.2
2019-Aug-21 22:09 192 12.2
2019-Aug-21 22:04 192 12.2
2019-Aug-21 21:59 192 12.8
2019-Aug-21 21:54 192 12.8
2019-Aug-21 21:49 192 12.8
2019-Aug-21 21:44 192 12.8
2019-Aug-21 21:39 193 12.8
2019-Aug-21 21:34 193 12.8
2019-Aug-21 21:29 193 12.8
2019-Aug-21 21:24 193 12.8
2019-Aug-21 21:19 193 12.8
2019-Aug-21 21:14 193 12.8
2019-Aug-21 21:09 193 0 gusting 4 12.8
2019-Aug-21 21:04 193 2 gusting 6 12.8